FW4331 Weather Reports


time (UTC)temp
F
wind
direction
speed
knots
gust
knots
rain 1hr
in
rain 24hr
in
rain mn
in
humidity
%
barometer
mb
20260506011521 74 201 1.7 6.1 0.00 0.00 0.00 28 1008.6
20260506010012 74 219 2.6 10.4 0.00 0.00 0.00 27 1008.4
20260506004508 74 262 2.6 8.7 0.00 0.00 0.00 27 1008.2
20260506003007 75 254 2.6 6.1 0.00 0.00 0.00 26 1008.1
20260506001504 76 193 0.9 8.7 0.00 0.00 0.00 24 1007.8
20260506000003 76 251 2.6 7.8 0.00 0.00 0.00 23 1007.8
20260505234503 77 219 2.6 7.8 0.00 0.00 0.00 22 1007.6
20260505233059 78 238 0.9 10.4 0.00 0.00 0.00 20 1007.6
20260505231557 79 243 7.8 13.0 0.00 0.00 0.00 18 1007.7
20260505230055 80 272 7.8 13.9 0.00 0.00 0.00 16 1007.9
20260505224554 80 236 4.3 11.3 0.00 0.00 0.00 19 1007.7
20260505223104 81 180 3.5 12.2 0.00 0.00 0.00 18 1007.6
20260505221549 81 176 7.0 17.4 0.00 0.00 0.00 17 1007.7
20260505220148 81 246 10.4 17.4 0.00 0.00 0.00 16 1007.7
20260505214553 81 215 6.1 16.5 0.00 0.00 0.00 17 1007.7
20260505213043 82 233 6.1 13.9 0.00 0.00 0.00 18 1007.5
20260505211548 83 252 6.1 19.1 0.00 0.00 0.00 18 1007.4
20260505210038 83 238 6.1 16.5 0.00 0.00 0.00 18 1007.3
20260505204537 82 219 8.7 19.1 0.00 0.00 0.00 17 1007.5
20260505203046 82 240 10.4 18.2 0.00 0.00 0.00 15 1007.4
20260505201529 82 235 7.8 20.0 0.00 0.00 0.00 17 1007.5
20260505200025 82 229 7.8 17.4 0.00 0.00 0.00 16 1007.6
20260505194523 83 255 7.8 20.9 0.00 0.00 0.00 16 1007.7
20260505193020 83 249 7.0 20.9 0.00 0.00 0.00 15 1007.6
20260505191517 83 199 10.4 18.2 0.00 0.00 0.00 15 1008.0
20260505190014 82 187 10.4 19.1 0.00 0.00 0.00 16 1008.3
20260505184516 83 240 7.8 20.9 0.00 0.00 0.00 17 1008.4
20260505183005 82 237 8.7 17.4 0.00 0.00 0.00 19 1008.6
20260505181502 82 221 5.2 13.0 0.00 0.00 0.00 22 1008.8
20260505180109 82 215 7.8 16.5 0.00 0.00 0.00 22 1009.1
20260505174554 81 242 7.8 17.4 0.00 0.00 0.00 24 1009.1
20260505173052 81 257 7.0 14.8 0.00 0.00 0.00 25 1009.1
20260505171548 81 229 7.8 14.8 0.00 0.00 0.00 25 1009.3
20260505170045 80 217 3.5 13.0 0.00 0.00 0.00 26 1009.5
20260505164543 80 229 5.2 12.2 0.00 0.00 0.00 25 1009.7
20260505163039 80 281 5.2 12.2 0.00 0.00 0.00 27 1009.9
20260505161538 78 269 6.1 9.6 0.00 0.00 0.00 26 1010.1
20260505153025 77 286 3.5 9.6 0.00 0.00 0.00 28 1010.6
20260505151524 76 212 2.6 11.3 0.00 0.00 0.00 28 1010.6
20260505140113 71 199 4.3 7.8 0.00 0.00 0.00 36 1010.8
20260505124534 65 286 0.9 3.5 0.00 0.00 0.00 43 1011.1
20260505123026 63 290 1.7 4.3 0.00 0.00 0.00 44 1011.1
20260505121521 62 274 0.9 6.1 0.00 0.00 0.00 46 1011.2
20260505120018 61 259 0.9 4.3 0.00 0.00 0.00 46 1011.1
20260505114513 61 269 2.6 7.0 0.00 0.00 0.00 46 1011.0
20260505113009 61 262 0.0 5.2 0.00 0.00 0.00 47 1010.9
20260505111510 60 238 1.7 6.1 0.00 0.00 0.00 47 1010.6
20260505101555 59 248 0.9 7.8 0.00 0.00 0.00 48 1010.1
20260505100049 59 203 1.7 7.0 0.00 0.00 0.00 49 1010.1
20260505094555 59 231 1.7 7.0 0.00 0.00 0.00 49 1010.1
20260505093052 59 231 1.7 7.8 0.00 0.00 0.00 49 1009.9
20260505091541 59 282 1.7 5.2 0.00 0.00 0.00 49 1009.9
20260505090037 59 257 2.6 7.0 0.00 0.00 0.00 49 1009.8
20260505084536 59 221 1.7 6.1 0.00 0.00 0.00 49 1009.8
20260505083016 60 224 0.0 7.8 0.00 0.00 0.00 49 1009.7
20260505081514 60 276 0.9 7.8 0.00 0.00 0.00 49 1009.7
20260505080023 60 234 3.5 9.6 0.00 0.00 0.00 49 1009.5
20260505074509 60 248 2.6 6.1 0.00 0.00 0.00 51 1009.6
20260505073006 60 246 0.0 6.1 0.00 0.00 0.00 51 1009.4
20260505071503 59 234 1.7 6.1 0.00 0.00 0.00 52 1009.4
20260505070002 58 215 0.0 5.2 0.00 0.00 0.00 55 1009.4
20260505064559 56 230 0.0 0.9 0.00 0.00 0.00 57 1009.3
20260505063057 57 246 0.0 1.7 0.00 0.00 0.00 56 1009.2
20260505061613 57 224 0.0 1.7 0.00 0.00 0.00 56 1009.2
20260505060057 56 258 0.0 0.0 0.00 0.00 0.00 58 1009.3
20260505054555 56 257 0.0 0.0 0.00 0.00 0.00 57 1009.3
20260505053045 58 257 0.0 0.0 0.00 0.00 0.00 56 1009.3
20260505051542 58 217 0.0 0.0 0.00 0.00 0.00 56 1009.4
20260505041531 59 238 0.0 0.0 0.00 0.00 0.00 54 1009.3
20260505040037 60 238 0.0 0.0 0.00 0.00 0.00 52 1009.3
20260505034535 62 238 0.0 0.0 0.00 0.00 0.00 50 1009.6
20260505033022 63 254 0.0 0.0 0.00 0.00 0.00 48 1009.5
20260505031523 63 264 0.0 0.9 0.00 0.00 0.00 47 1009.6
20260505030020 64 219 0.0 0.9 0.00 0.00 0.00 45 1009.5
20260505024519 65 240 0.0 1.7 0.00 0.00 0.00 44 1009.5
20260505023016 66 264 0.0 3.5 0.00 0.00 0.00 42 1009.4
20260505021515 67 259 0.0 4.3 0.00 0.00 0.00 41 1009.3
20260505020015 68 236 0.0 6.1 0.00 0.00 0.00 39 1009.3
20260505014514 68 251 2.6 8.7 0.00 0.00 0.00 38 1009.2
20260505013007 69 226 0.0 6.1 0.00 0.00 0.00 36 1009.0